Weather History for North Platte, NE

Change the Weather History Date:

Wednesday, November 14, 2012

  Actual Average Record
Temperature  
Mean Temperature 37 °F 36 °F  
Max Temperature 60 °F 51 °F 78 °F (1990)
Min Temperature 14 °F 22 °F -8 °F (1940)
Degree Days  
Heating Degree Days 28 29  
Month to date heating degree days 361 357  
Since 1 July heating degree days 1062 1026  
Cooling Degree Days 0 0  
Month to date cooling degree days 0 0  
Year to date cooling degree days 1245 768  
Moisture  
Dew Point 21 °F    
Average Humidity 59    
Maximum Humidity 92    
Minimum Humidity 26    
Precipitation  
Precipitation 0.00 in 0.02 in 0.49 in (1993)
Month to date precipitation T 0.36  
Year to date precipitation 9.62 19.54  
Snow  
Snow 0.00 in 0.20 in 3.80 in (1993)
Month to date snowfall T 1.7  
Since 1 July snowfall 2.2 4.0  
Since 1 September snowfall 2.2 4.0  
Snow Depth 0.00 in    
Sea Level Pressure  
Sea Level Pressure 30.24 in    
Wind  
Wind Speed 5 mph (SW)    
Max Wind Speed 17 mph    
Max Gust Speed 23 mph    
Visibility 10 miles    
Events      
T = Trace of Precipitation, MM = Missing Value Source: NWS Daily Summary

Daily Weather History Graph

Daily Weather History Graph

Search for Another Location

Airport:

Trip Planner

Search our weather history database for the weather conditions in past years. The results will help you decide how hot, cold, wet, or windy it might be!

Date:

Astronomy

Nov. 14, 2012 Rise Set
Actual Time 7:29 AM CST 5:24 PM CST
Civil Twilight 7:00 AM CST 5:53 PM CST
Nautical Twilight 6:27 AM CST 6:26 PM CST
Astronomical Twilight 5:54 AM CST 6:59 PM CST
Moon 8:21 AM CST (11/14) 6:13 PM CST (11/14)
Length of Visible Light 10h 53m
Length of Day
9h 54m
New Moon, 1% of the Moon is Illuminated
Nov 14
New Moon
Nov 20
First Quarter
Nov 28
Full
Dec 6
Last Quarter
Dec 13
New

Hourly Weather History & Observations

Time (CST) Temp. Windchill Dew Point Humidity Pressure Visibility Wind Dir Wind Speed Gust Speed Precip Events Conditions
12:53 AM 21.0 °F 13.4 °F 19.0 °F 92% 30.31 in 10.0 mi NW 5.8 mph - N/A   Clear
1:53 AM 19.0 °F 13.9 °F 17.1 °F 92% 30.31 in 10.0 mi West 3.5 mph - N/A   Clear
2:53 AM 18.0 °F 11.1 °F 16.0 °F 92% 30.32 in 10.0 mi WNW 4.6 mph - N/A   Clear
3:53 AM 18.0 °F 12.7 °F 16.0 °F 92% 30.31 in 10.0 mi NW 3.5 mph - N/A   Clear
4:53 AM 16.0 °F - 12.9 °F 88% 30.31 in 10.0 mi Calm Calm - N/A   Clear
5:53 AM 16.0 °F 6.3 °F 12.9 °F 88% 30.32 in 10.0 mi NW 6.9 mph - N/A   Clear
6:53 AM 15.1 °F 6.4 °F 12.9 °F 91% 30.34 in 10.0 mi NW 5.8 mph - N/A   Clear
7:53 AM 16.0 °F 10.4 °F 12.9 °F 88% 30.35 in 10.0 mi WNW 3.5 mph - N/A   Clear
8:53 AM 25.0 °F - 19.9 °F 81% 30.35 in 10.0 mi Calm Calm - N/A   Clear
9:53 AM 33.1 °F - 25.0 °F 72% 30.33 in 10.0 mi Calm Calm - N/A   Clear
10:53 AM 39.0 °F - 27.0 °F 62% 30.31 in 10.0 mi Calm Calm - N/A   Clear
11:53 AM 46.0 °F 43.9 °F 28.9 °F 51% 30.27 in 10.0 mi ESE 4.6 mph - N/A   Clear
12:53 PM 55.9 °F - 26.1 °F 32% 30.21 in 10.0 mi SSW 11.5 mph - N/A   Clear
1:53 PM 57.0 °F - 25.0 °F 29% 30.19 in 10.0 mi South 12.7 mph - N/A   Clear
2:53 PM 59.0 °F - 25.0 °F 27% 30.16 in 10.0 mi SSW 15.0 mph 19.6 mph N/A   Clear
3:53 PM 55.9 °F - 24.1 °F 29% 30.16 in 10.0 mi SSW 11.5 mph - N/A   Clear
4:53 PM 54.0 °F - 24.1 °F 31% 30.15 in 10.0 mi South 11.5 mph - N/A   Clear
5:53 PM 48.9 °F - 23.0 °F 36% 30.16 in 10.0 mi South 4.6 mph - N/A   Partly Cloudy
6:53 PM 46.9 °F - 24.1 °F 41% 30.17 in 10.0 mi South 3.5 mph - N/A   Clear
7:53 PM 48.0 °F - 24.1 °F 39% 30.18 in 10.0 mi South 6.9 mph - N/A   Scattered Clouds
8:53 PM 44.1 °F - 24.1 °F 45% 30.18 in 10.0 mi Calm Calm - N/A   Partly Cloudy
9:53 PM 46.0 °F 43.9 °F 24.1 °F 42% 30.17 in 10.0 mi South 4.6 mph - N/A   Mostly Cloudy
10:53 PM 42.1 °F - 23.0 °F 47% 30.17 in 10.0 mi Calm Calm - N/A   Scattered Clouds
11:53 PM 39.0 °F - 23.0 °F 53% 30.17 in 10.0 mi Calm Calm - N/A   Mostly Cloudy